Time,TemperatureF,DewpointF,PressureIn,WindDirection,WindDirectionDegrees,WindSpeedMPH,WindSpeedGustMPH,Humidity,HourlyPrecipIn,Conditions,Clouds,dailyrainin,SoftwareType,DateUTC
2013-01-08 00:06:00,25.3,24.0,30.08,NW,320,0.0,0.0,95,0.00,,,0.00,WXlink_for_OpenVMS,2013-01-08 05:06:00,
2013-01-08 00:10:00,25.3,24.0,30.08,NW,320,0.0,0.0,95,0.00,,,0.00,WXlink_for_OpenVMS,2013-01-08 05:10:00,
2013-01-08 00:16:00,25.5,24.0,30.08,NW,320,0.0,0.0,95,0.00,,,0.00,WXlink_for_OpenVMS,2013-01-08 05:16:00,
2013-01-08 00:26:00,24.6,23.0,30.08,NW,320,0.0,0.0,95,0.00,,,0.00,WXlink_for_OpenVMS,2013-01-08 05:26:00,
2013-01-08 00:31:00,23.7,22.0,30.08,NW,320,0.0,0.0,95,0.00,,,0.00,WXlink_for_OpenVMS,2013-01-08 05:31:00,
2013-01-08 00:36:00,23.5,22.0,30.08,NW,320,0.0,0.0,95,0.00,,,0.00,WXlink_for_OpenVMS,2013-01-08 05:36:00,
2013-01-08 00:46:00,23.5,22.0,30.08,NW,320,0.0,0.0,95,0.00,,,0.00,WXlink_for_OpenVMS,2013-01-08 05:46:00,
2013-01-08 00:51:00,23.5,22.0,30.08,NW,320,0.0,0.0,95,0.00,,,0.00,WXlink_for_OpenVMS,2013-01-08 05:51:00,
2013-01-08 01:01:00,23.7,22.0,30.08,NW,320,0.0,0.0,95,0.00,,,0.00,WXlink_for_OpenVMS,2013-01-08 06:01:00,
2013-01-08 01:06:00,23.5,22.0,30.08,NW,320,0.0,0.0,95,0.00,,,0.00,WXlink_for_OpenVMS,2013-01-08 06:06:00,
2013-01-08 01:10:00,23.7,22.0,30.08,NW,320,0.0,0.0,95,0.00,,,0.00,WXlink_for_OpenVMS,2013-01-08 06:10:00,
2013-01-08 01:16:00,23.5,22.0,30.08,NW,320,0.0,0.0,95,0.00,,,0.00,WXlink_for_OpenVMS,2013-01-08 06:16:00,
2013-01-08 01:25:00,23.7,22.0,30.08,NW,320,0.0,0.0,95,0.00,,,0.00,WXlink_for_OpenVMS,2013-01-08 06:25:00,
2013-01-08 01:31:00,23.5,22.0,30.08,NW,320,0.0,0.0,95,0.00,,,0.00,WXlink_for_OpenVMS,2013-01-08 06:31:00,
2013-01-08 01:36:00,23.4,22.0,30.08,NW,320,0.0,0.0,95,0.00,,,0.00,WXlink_for_OpenVMS,2013-01-08 06:36:00,
2013-01-08 01:41:00,23.0,22.0,30.08,NW,320,0.0,0.0,96,0.00,,,0.00,WXlink_for_OpenVMS,2013-01-08 06:41:00,
2013-01-08 01:45:00,22.8,22.0,30.08,NW,320,0.0,0.0,96,0.00,,,0.00,WXlink_for_OpenVMS,2013-01-08 06:45:00,
2013-01-08 01:50:00,22.8,22.0,30.08,NW,320,0.0,0.0,96,0.00,,,0.00,WXlink_for_OpenVMS,2013-01-08 06:50:00,
2013-01-08 01:56:00,22.8,22.0,30.08,NW,320,0.0,0.0,96,0.00,,,0.00,WXlink_for_OpenVMS,2013-01-08 06:56:00,
2013-01-08 02:00:00,22.8,22.0,30.08,NW,320,0.0,0.0,96,0.00,,,0.00,WXlink_for_OpenVMS,2013-01-08 07:00:00,
2013-01-08 02:06:00,22.8,22.0,30.08,NW,320,0.0,0.0,96,0.00,,,0.00,WXlink_for_OpenVMS,2013-01-08 07:06:00,
2013-01-08 02:10:00,22.8,22.0,30.08,NW,320,0.0,0.0,96,0.00,,,0.00,WXlink_for_OpenVMS,2013-01-08 07:10:00,
2013-01-08 02:16:00,22.8,22.0,30.08,NW,320,0.0,0.0,96,0.00,,,0.00,WXlink_for_OpenVMS,2013-01-08 07:16:00,
2013-01-08 02:25:00,22.8,22.0,30.08,NW,320,0.0,0.0,96,0.00,,,0.00,WXlink_for_OpenVMS,2013-01-08 07:25:00,
2013-01-08 02:30:00,22.8,22.0,30.08,NW,320,0.0,0.0,96,0.00,,,0.00,WXlink_for_OpenVMS,2013-01-08 07:30:00,
2013-01-08 02:35:00,23.2,22.0,30.08,NW,320,0.0,0.0,95,0.00,,,0.00,WXlink_for_OpenVMS,2013-01-08 07:35:00,
2013-01-08 02:41:00,23.5,22.0,30.08,NW,320,0.0,0.0,95,0.00,,,0.00,WXlink_for_OpenVMS,2013-01-08 07:41:00,
2013-01-08 02:50:00,24.1,23.0,30.05,NW,320,0.0,0.0,95,0.00,,,0.00,WXlink_for_OpenVMS,2013-01-08 07:50:00,
2013-01-08 02:55:00,24.4,23.0,30.05,NW,320,0.0,0.0,95,0.00,,,0.00,WXlink_for_OpenVMS,2013-01-08 07:55:00,
2013-01-08 03:01:00,24.6,23.0,30.05,NW,320,0.0,0.0,95,0.00,,,0.00,WXlink_for_OpenVMS,2013-01-08 08:01:00,
2013-01-08 03:10:00,24.8,24.0,30.05,NW,320,0.0,0.0,95,0.00,,,0.00,WXlink_for_OpenVMS,2013-01-08 08:10:00,
2013-01-08 03:15:00,25.0,24.0,30.05,NW,320,0.0,0.0,95,0.00,,,0.00,WXlink_for_OpenVMS,2013-01-08 08:15:00,
2013-01-08 03:20:00,25.2,24.0,30.05,NW,320,0.0,0.0,95,0.00,,,0.00,WXlink_for_OpenVMS,2013-01-08 08:20:00,
2013-01-08 03:25:00,25.2,24.0,30.05,NW,320,0.0,0.0,95,0.00,,,0.00,WXlink_for_OpenVMS,2013-01-08 08:25:00,
2013-01-08 03:31:00,25.3,24.0,30.05,NW,320,0.0,0.0,95,0.00,,,0.00,WXlink_for_OpenVMS,2013-01-08 08:31:00,
2013-01-08 03:40:00,25.5,24.0,30.05,NW,320,0.0,0.0,95,0.00,,,0.00,WXlink_for_OpenVMS,2013-01-08 08:40:00,
2013-01-08 03:45:00,25.5,24.0,30.05,NW,320,0.0,0.0,95,0.00,,,0.00,WXlink_for_OpenVMS,2013-01-08 08:45:00,
2013-01-08 03:50:00,25.3,24.0,30.05,NW,320,0.0,0.0,95,0.00,,,0.00,WXlink_for_OpenVMS,2013-01-08 08:50:00,
2013-01-08 03:55:00,25.3,24.0,30.05,NW,320,0.0,0.0,95,0.00,,,0.00,WXlink_for_OpenVMS,2013-01-08 08:55:00,
2013-01-08 04:00:00,25.2,24.0,30.02,NW,320,0.0,0.0,95,0.00,,,0.00,WXlink_for_OpenVMS,2013-01-08 09:00:00,
2013-01-08 04:06:00,25.3,24.0,30.02,NW,320,0.0,0.0,95,0.00,,,0.00,WXlink_for_OpenVMS,2013-01-08 09:06:00,
2013-01-08 04:11:00,25.3,24.0,30.02,NW,320,0.0,0.0,95,0.00,,,0.00,WXlink_for_OpenVMS,2013-01-08 09:11:00,
2013-01-08 04:20:00,25.5,24.0,30.02,NW,320,0.0,0.0,95,0.00,,,0.00,WXlink_for_OpenVMS,2013-01-08 09:20:00,
2013-01-08 04:25:00,25.3,24.0,30.02,NW,320,0.0,0.0,95,0.00,,,0.00,WXlink_for_OpenVMS,2013-01-08 09:25:00,
2013-01-08 04:30:00,25.3,24.0,30.02,NW,320,0.0,0.0,95,0.00,,,0.00,WXlink_for_OpenVMS,2013-01-08 09:30:00,
2013-01-08 04:35:00,25.2,24.0,30.02,NW,320,0.0,0.0,95,0.00,,,0.00,WXlink_for_OpenVMS,2013-01-08 09:35:00,
2013-01-08 04:40:00,25.3,24.0,30.02,NW,320,0.0,0.0,95,0.00,,,0.00,WXlink_for_OpenVMS,2013-01-08 09:40:00,
2013-01-08 04:45:00,25.3,24.0,30.02,NW,320,0.0,0.0,95,0.00,,,0.00,WXlink_for_OpenVMS,2013-01-08 09:45:00,
2013-01-08 04:51:00,25.3,24.0,30.02,NW,320,0.0,0.0,95,0.00,,,0.00,WXlink_for_OpenVMS,2013-01-08 09:51:00,
2013-01-08 05:00:00,25.2,24.0,30.02,NW,320,0.0,0.0,95,0.00,,,0.00,WXlink_for_OpenVMS,2013-01-08 10:00:00,
2013-01-08 05:06:00,25.3,24.0,30.02,NW,320,0.0,0.0,95,0.00,,,0.00,WXlink_for_OpenVMS,2013-01-08 10:06:00,
2013-01-08 05:10:00,25.3,24.0,30.02,NW,320,0.0,0.0,95,0.00,,,0.00,WXlink_for_OpenVMS,2013-01-08 10:10:00,
2013-01-08 05:15:00,25.3,24.0,30.02,NW,320,0.0,0.0,95,0.00,,,0.00,WXlink_for_OpenVMS,2013-01-08 10:15:00,
2013-01-08 05:20:00,25.5,24.0,30.02,NW,320,0.0,0.0,95,0.00,,,0.00,WXlink_for_OpenVMS,2013-01-08 10:20:00,
2013-01-08 05:26:00,25.7,24.0,30.02,NW,320,0.0,0.0,95,0.00,,,0.00,WXlink_for_OpenVMS,2013-01-08 10:26:00,
2013-01-08 05:35:00,25.7,24.0,30.02,NW,320,0.0,0.0,95,0.00,,,0.00,WXlink_for_OpenVMS,2013-01-08 10:35:00,
2013-01-08 05:40:00,25.5,24.0,30.02,NW,320,0.0,0.0,95,0.00,,,0.00,WXlink_for_OpenVMS,2013-01-08 10:40:00,
2013-01-08 05:45:00,25.5,24.0,30.02,NW,320,0.0,0.0,95,0.00,,,0.00,WXlink_for_OpenVMS,2013-01-08 10:45:00,
2013-01-08 05:50:00,25.5,24.0,30.02,NW,320,0.0,0.0,95,0.00,,,0.00,WXlink_for_OpenVMS,2013-01-08 10:50:00,
2013-01-08 05:55:00,25.9,25.0,30.02,NW,320,0.0,0.0,95,0.00,,,0.00,WXlink_for_OpenVMS,2013-01-08 10:55:00,
2013-01-08 06:00:00,25.9,25.0,30.02,NW,320,0.0,0.0,95,0.00,,,0.00,WXlink_for_OpenVMS,2013-01-08 11:00:00,
2013-01-08 06:06:00,26.1,25.0,30.02,NW,320,0.0,0.0,95,0.00,,,0.00,WXlink_for_OpenVMS,2013-01-08 11:06:00,
2013-01-08 06:11:00,26.1,25.0,30.02,NW,320,0.0,0.0,95,0.00,,,0.00,WXlink_for_OpenVMS,2013-01-08 11:11:00,
2013-01-08 06:20:00,26.6,25.0,30.02,NW,320,0.0,0.0,95,0.00,,,0.00,WXlink_for_OpenVMS,2013-01-08 11:20:00,
2013-01-08 06:25:00,26.8,25.0,30.02,NW,320,0.0,0.0,94,0.00,,,0.00,WXlink_for_OpenVMS,2013-01-08 11:25:00,
2013-01-08 06:31:00,27.1,26.0,30.02,NW,320,0.0,0.0,94,0.00,,,0.00,WXlink_for_OpenVMS,2013-01-08 11:31:00,
2013-01-08 06:35:00,27.5,26.0,30.02,NW,320,0.0,0.0,94,0.00,,,0.00,WXlink_for_OpenVMS,2013-01-08 11:35:00,
2013-01-08 06:40:00,27.9,26.0,30.02,SSW,210,0.0,0.0,94,0.00,,,0.00,WXlink_for_OpenVMS,2013-01-08 11:40:00,
2013-01-08 06:45:00,28.4,27.0,30.02,SSW,212,0.0,0.0,94,0.00,,,0.00,WXlink_for_OpenVMS,2013-01-08 11:45:00,
2013-01-08 06:50:00,28.8,27.0,30.02,SW,231,0.0,0.0,94,0.00,,,0.00,WXlink_for_OpenVMS,2013-01-08 11:50:00,
2013-01-08 06:56:00,29.3,28.0,30.02,SW,231,0.0,0.0,94,0.00,,,0.00,WXlink_for_OpenVMS,2013-01-08 11:56:00,
2013-01-08 07:06:00,30.4,29.0,30.02,South,180,2.7,0.0,94,0.00,,,0.00,WXlink_for_OpenVMS,2013-01-08 12:06:00,
2013-01-08 07:10:00,30.7,29.0,30.02,SW,221,0.0,0.0,94,0.00,,,0.00,WXlink_for_OpenVMS,2013-01-08 12:10:00,
2013-01-08 07:15:00,30.9,29.0,30.02,SSW,202,0.0,0.0,94,0.00,,,0.00,WXlink_for_OpenVMS,2013-01-08 12:15:00,
2013-01-08 07:21:00,31.1,30.0,30.02,SW,229,0.0,0.0,94,0.00,,,0.00,WXlink_for_OpenVMS,2013-01-08 12:21:00,
2013-01-08 07:30:00,31.6,30.0,30.05,SW,214,2.7,2.7,94,0.00,,,0.00,WXlink_for_OpenVMS,2013-01-08 12:30:00,
2013-01-08 07:35:00,31.8,30.0,30.05,SW,215,0.0,0.0,94,0.00,,,0.00,WXlink_for_OpenVMS,2013-01-08 12:35:00,
2013-01-08 07:40:00,31.8,30.0,30.05,WSW,237,2.7,2.7,94,0.00,,,0.00,WXlink_for_OpenVMS,2013-01-08 12:40:00,
2013-01-08 07:45:00,32.0,30.0,30.05,SW,234,0.0,0.0,94,0.00,,,0.00,WXlink_for_OpenVMS,2013-01-08 12:45:00,
2013-01-08 07:50:00,32.2,31.0,30.05,SW,225,2.7,2.7,94,0.00,,,0.00,WXlink_for_OpenVMS,2013-01-08 12:50:00,
2013-01-08 07:55:00,32.2,31.0,30.05,SSW,205,3.1,3.1,94,0.00,,,0.00,WXlink_for_OpenVMS,2013-01-08 12:55:00,
2013-01-08 08:00:00,32.4,31.0,30.05,SSW,197,3.1,4.0,94,0.00,,,0.00,WXlink_for_OpenVMS,2013-01-08 13:00:00,
2013-01-08 08:06:00,32.5,31.0,30.05,SSW,209,2.7,2.7,94,0.00,,,0.00,WXlink_for_OpenVMS,2013-01-08 13:06:00,
2013-01-08 08:15:00,32.9,31.0,30.05,SW,228,0.0,0.0,94,0.00,,,0.00,WXlink_for_OpenVMS,2013-01-08 13:15:00,
2013-01-08 08:20:00,32.9,31.0,30.05,SW,214,4.5,4.5,94,0.00,,,0.00,WXlink_for_OpenVMS,2013-01-08 13:20:00,
2013-01-08 08:25:00,33.1,32.0,30.05,SW,222,3.6,3.6,94,0.00,,,0.00,WXlink_for_OpenVMS,2013-01-08 13:25:00,
2013-01-08 08:30:00,33.3,32.0,30.05,SW,227,3.1,3.6,94,0.00,,,0.00,WXlink_for_OpenVMS,2013-01-08 13:30:00,
2013-01-08 08:35:00,33.4,32.0,30.05,SW,231,4.0,4.0,94,0.00,,,0.00,WXlink_for_OpenVMS,2013-01-08 13:35:00,
2013-01-08 08:41:00,33.6,32.0,30.05,South,191,3.6,3.6,94,0.00,,,0.00,WXlink_for_OpenVMS,2013-01-08 13:41:00,
2013-01-08 08:46:00,34.0,32.0,30.05,SSW,194,0.0,2.7,93,0.00,,,0.00,WXlink_for_OpenVMS,2013-01-08 13:46:00,
2013-01-08 08:55:00,34.2,32.0,30.05,South,191,4.5,4.5,93,0.00,,,0.00,WXlink_for_OpenVMS,2013-01-08 13:55:00,
2013-01-08 09:00:00,34.3,33.0,30.05,SW,228,2.2,2.2,93,0.00,,,0.00,WXlink_for_OpenVMS,2013-01-08 14:00:00,
2013-01-08 09:06:00,34.5,33.0,30.05,SW,227,3.6,3.6,93,0.00,,,0.00,WXlink_for_OpenVMS,2013-01-08 14:06:00,
2013-01-08 09:10:00,34.5,33.0,30.05,WSW,238,4.0,5.4,93,0.00,,,0.00,WXlink_for_OpenVMS,2013-01-08 14:10:00,
2013-01-08 09:15:00,34.9,33.0,30.05,SSW,208,0.0,0.0,93,0.00,,,0.00,WXlink_for_OpenVMS,2013-01-08 14:15:00,
2013-01-08 09:21:00,35.1,33.0,30.05,South,189,3.6,5.8,93,0.00,,,0.00,WXlink_for_OpenVMS,2013-01-08 14:21:00,
2013-01-08 09:30:00,35.4,34.0,30.05,SSW,204,3.6,3.6,93,0.00,,,0.00,WXlink_for_OpenVMS,2013-01-08 14:30:00,
2013-01-08 09:35:00,35.6,34.0,30.05,West,265,2.7,3.1,93,0.00,,,0.00,WXlink_for_OpenVMS,2013-01-08 14:35:00,
2013-01-08 09:40:00,35.8,34.0,30.05,SW,231,0.0,4.0,93,0.00,,,0.00,WXlink_for_OpenVMS,2013-01-08 14:40:00,
2013-01-08 09:45:00,36.1,34.0,30.05,WSW,237,3.1,3.1,93,0.00,,,0.00,WXlink_for_OpenVMS,2013-01-08 14:45:00,
2013-01-08 09:50:00,36.3,34.0,30.05,SW,227,3.1,4.0,93,0.00,,,0.00,WXlink_for_OpenVMS,2013-01-08 14:50:00,
2013-01-08 09:55:00,36.7,35.0,30.05,SSW,206,3.6,3.6,93,0.00,,,0.00,WXlink_for_OpenVMS,2013-01-08 14:55:00,
2013-01-08 10:00:00,36.9,35.0,30.05,SW,229,3.6,3.6,93,0.00,,,0.00,WXlink_for_OpenVMS,2013-01-08 15:00:00,
2013-01-08 10:06:00,37.0,35.0,30.05,WSW,240,2.2,3.1,93,0.00,,,0.00,WXlink_for_OpenVMS,2013-01-08 15:06:00,
2013-01-08 10:15:00,37.4,35.0,30.05,SW,221,4.0,4.0,90,0.00,,,0.00,WXlink_for_OpenVMS,2013-01-08 15:15:00,
2013-01-08 10:20:00,37.6,35.0,30.05,South,182,5.4,5.4,90,0.00,,,0.00,WXlink_for_OpenVMS,2013-01-08 15:20:00,
2013-01-08 10:25:00,37.8,35.0,30.05,SW,221,3.1,3.1,90,0.00,,,0.00,WXlink_for_OpenVMS,2013-01-08 15:25:00,
2013-01-08 10:30:00,37.9,35.0,30.05,SW,234,3.1,3.1,90,0.00,,,0.00,WXlink_for_OpenVMS,2013-01-08 15:30:00,
2013-01-08 10:35:00,38.1,35.0,30.05,SW,228,2.7,5.4,90,0.00,,,0.00,WXlink_for_OpenVMS,2013-01-08 15:35:00,
2013-01-08 10:40:00,38.5,36.0,30.05,WSW,238,4.5,5.8,90,0.00,,,0.00,WXlink_for_OpenVMS,2013-01-08 15:40:00,
2013-01-08 10:46:00,38.7,36.0,30.05,SW,216,3.6,3.6,90,0.00,,,0.00,WXlink_for_OpenVMS,2013-01-08 15:46:00,
2013-01-08 10:55:00,39.2,37.0,30.05,SW,230,4.0,4.0,90,0.00,,,0.00,WXlink_for_OpenVMS,2013-01-08 15:55:00,
2013-01-08 11:00:00,39.4,37.0,30.05,SW,224,4.5,5.4,90,0.00,,,0.00,WXlink_for_OpenVMS,2013-01-08 16:00:00,
2013-01-08 11:06:00,39.6,37.0,30.05,SW,232,4.5,4.5,90,0.00,,,0.00,WXlink_for_OpenVMS,2013-01-08 16:06:00,
2013-01-08 11:10:00,39.7,37.0,30.05,WSW,239,4.0,4.0,90,0.00,,,0.00,WXlink_for_OpenVMS,2013-01-08 16:10:00,
2013-01-08 11:16:00,39.9,37.0,30.02,West,271,5.4,5.4,90,0.00,,,0.00,WXlink_for_OpenVMS,2013-01-08 16:16:00,
2013-01-08 11:25:00,40.5,38.0,30.02,SW,214,3.6,5.8,90,0.00,,,0.00,WXlink_for_OpenVMS,2013-01-08 16:25:00,
2013-01-08 11:30:00,40.6,38.0,30.02,SE,137,4.9,4.9,90,0.00,,,0.00,WXlink_for_OpenVMS,2013-01-08 16:30:00,
2013-01-08 11:35:00,40.8,38.0,30.02,SW,236,3.1,3.6,90,0.00,,,0.00,WXlink_for_OpenVMS,2013-01-08 16:35:00,
2013-01-08 11:40:00,41.0,38.0,30.02,SW,216,3.1,4.9,90,0.00,,,0.00,WXlink_for_OpenVMS,2013-01-08 16:40:00,
2013-01-08 11:45:00,41.2,38.0,30.02,WSW,242,3.6,4.0,90,0.00,,,0.00,WXlink_for_OpenVMS,2013-01-08 16:45:00,
2013-01-08 11:50:00,41.4,39.0,30.02,SSW,205,3.6,3.6,90,0.00,,,0.00,WXlink_for_OpenVMS,2013-01-08 16:50:00,
2013-01-08 11:56:00,41.5,39.0,30.02,South,191,3.6,3.6,90,0.00,,,0.00,WXlink_for_OpenVMS,2013-01-08 16:56:00,
2013-01-08 12:06:00,41.9,39.0,29.99,SW,224,3.1,3.6,90,0.00,,,0.00,WXlink_for_OpenVMS,2013-01-08 17:06:00,
2013-01-08 12:10:00,42.1,39.0,29.99,SW,235,3.6,4.0,90,0.00,,,0.00,WXlink_for_OpenVMS,2013-01-08 17:10:00,
2013-01-08 12:15:00,42.3,40.0,29.99,SSW,213,4.9,4.9,90,0.00,,,0.00,WXlink_for_OpenVMS,2013-01-08 17:15:00,
2013-01-08 12:20:00,42.3,40.0,29.99,WSW,252,3.1,3.1,90,0.00,,,0.00,WXlink_for_OpenVMS,2013-01-08 17:20:00,
2013-01-08 12:25:00,42.3,40.0,29.99,WSW,237,4.0,4.0,90,0.00,,,0.00,WXlink_for_OpenVMS,2013-01-08 17:25:00,
2013-01-08 12:30:00,42.6,40.0,29.99,WSW,238,3.6,3.6,90,0.00,,,0.00,WXlink_for_OpenVMS,2013-01-08 17:30:00,
2013-01-08 12:36:00,42.8,39.0,29.99,SW,235,2.7,2.7,88,0.00,,,0.00,WXlink_for_OpenVMS,2013-01-08 17:36:00,
2013-01-08 12:41:00,42.8,39.0,29.99,WSW,250,3.6,3.6,88,0.00,,,0.00,WXlink_for_OpenVMS,2013-01-08 17:41:00,
2013-01-08 12:50:00,43.0,40.0,29.99,SW,222,5.4,5.8,88,0.00,,,0.00,WXlink_for_OpenVMS,2013-01-08 17:50:00,
2013-01-08 12:55:00,43.2,40.0,29.99,SW,236,4.5,5.4,88,0.00,,,0.00,WXlink_for_OpenVMS,2013-01-08 17:55:00,
2013-01-08 13:00:00,43.0,40.0,29.99,SSW,213,4.0,4.0,88,0.00,,,0.00,WXlink_for_OpenVMS,2013-01-08 18:00:00,
2013-01-08 13:06:00,43.2,40.0,29.99,SW,220,3.1,3.6,88,0.00,,,0.00,WXlink_for_OpenVMS,2013-01-08 18:06:00,
2013-01-08 13:11:00,43.3,40.0,29.99,SW,219,4.0,4.0,88,0.00,,,0.00,WXlink_for_OpenVMS,2013-01-08 18:11:00,
2013-01-08 13:20:00,43.3,40.0,29.99,SW,235,4.5,4.5,88,0.00,,,0.00,WXlink_for_OpenVMS,2013-01-08 18:20:00,
2013-01-08 13:25:00,43.3,40.0,29.99,SW,219,4.9,4.9,88,0.00,,,0.00,WXlink_for_OpenVMS,2013-01-08 18:25:00,
2013-01-08 13:30:00,43.3,40.0,29.99,SW,214,3.6,4.0,88,0.00,,,0.00,WXlink_for_OpenVMS,2013-01-08 18:30:00,
2013-01-08 13:35:00,43.3,40.0,29.99,SW,227,4.5,4.5,88,0.00,,,0.00,WXlink_for_OpenVMS,2013-01-08 18:35:00,
2013-01-08 13:40:00,43.2,40.0,29.99,SW,218,0.0,0.0,88,0.00,,,0.00,WXlink_for_OpenVMS,2013-01-08 18:40:00,
2013-01-08 13:45:00,43.0,40.0,29.99,SW,218,0.0,0.0,88,0.00,,,0.00,WXlink_for_OpenVMS,2013-01-08 18:45:00,
2013-01-08 13:50:00,42.8,39.0,29.99,SSW,206,0.0,0.0,88,0.00,,,0.00,WXlink_for_OpenVMS,2013-01-08 18:50:00,
2013-01-08 13:56:00,42.8,39.0,29.99,SSW,210,0.0,0.0,88,0.00,,,0.00,WXlink_for_OpenVMS,2013-01-08 18:56:00,
2013-01-08 14:06:00,43.0,40.0,29.99,SW,230,2.2,2.2,88,0.00,,,0.00,WXlink_for_OpenVMS,2013-01-08 19:06:00,
2013-01-08 14:10:00,43.0,40.0,29.99,SW,230,0.0,0.0,88,0.00,,,0.00,WXlink_for_OpenVMS,2013-01-08 19:10:00,
2013-01-08 14:15:00,43.0,40.0,29.99,SW,232,0.0,0.0,88,0.00,,,0.00,WXlink_for_OpenVMS,2013-01-08 19:15:00,
2013-01-08 14:20:00,43.0,40.0,29.99,SW,231,0.0,0.0,88,0.00,,,0.00,WXlink_for_OpenVMS,2013-01-08 19:20:00,
2013-01-08 14:25:00,43.0,40.0,29.99,SW,214,0.0,0.0,88,0.00,,,0.00,WXlink_for_OpenVMS,2013-01-08 19:25:00,
2013-01-08 14:30:00,43.0,40.0,29.99,South,187,0.0,0.0,88,0.00,,,0.00,WXlink_for_OpenVMS,2013-01-08 19:30:00,
2013-01-08 14:35:00,43.0,40.0,29.99,South,187,0.0,0.0,88,0.00,,,0.00,WXlink_for_OpenVMS,2013-01-08 19:35:00,
2013-01-08 14:40:00,42.8,39.0,29.99,South,187,0.0,0.0,88,0.00,,,0.00,WXlink_for_OpenVMS,2013-01-08 19:40:00,
2013-01-08 14:46:00,42.8,39.0,30.02,South,187,0.0,0.0,88,0.00,,,0.00,WXlink_for_OpenVMS,2013-01-08 19:46:00,
2013-01-08 14:55:00,43.0,40.0,30.02,SW,222,0.0,0.0,88,0.00,,,0.00,WXlink_for_OpenVMS,2013-01-08 19:55:00,
2013-01-08 15:00:00,43.2,40.0,30.02,SSW,204,2.7,2.7,88,0.00,,,0.00,WXlink_for_OpenVMS,2013-01-08 20:00:00,
2013-01-08 15:06:00,43.3,40.0,30.02,SW,218,2.7,3.1,88,0.00,,,0.00,WXlink_for_OpenVMS,2013-01-08 20:06:00,
2013-01-08 15:11:00,43.2,40.0,30.02,SSW,212,0.0,0.0,88,0.00,,,0.00,WXlink_for_OpenVMS,2013-01-08 20:11:00,
2013-01-08 15:20:00,42.8,39.0,30.02,SW,234,3.1,3.1,88,0.00,,,0.00,WXlink_for_OpenVMS,2013-01-08 20:20:00,
2013-01-08 15:25:00,42.6,40.0,30.02,SSW,211,3.6,5.4,90,0.00,,,0.00,WXlink_for_OpenVMS,2013-01-08 20:25:00,
2013-01-08 15:30:00,42.8,39.0,30.02,SW,218,0.0,0.0,88,0.00,,,0.00,WXlink_for_OpenVMS,2013-01-08 20:30:00,
2013-01-08 15:35:00,42.6,40.0,30.02,SW,220,0.0,0.0,90,0.00,,,0.00,WXlink_for_OpenVMS,2013-01-08 20:35:00,
2013-01-08 15:40:00,42.4,40.0,30.02,SW,218,0.0,0.0,90,0.00,,,0.00,WXlink_for_OpenVMS,2013-01-08 20:40:00,
2013-01-08 15:45:00,42.4,40.0,30.02,SW,220,0.0,3.1,90,0.00,,,0.00,WXlink_for_OpenVMS,2013-01-08 20:45:00,
2013-01-08 15:51:00,42.3,40.0,30.02,SSW,204,0.0,0.0,90,0.00,,,0.00,WXlink_for_OpenVMS,2013-01-08 20:51:00,
2013-01-08 16:00:00,41.9,39.0,30.02,SW,219,0.0,0.0,90,0.00,,,0.00,WXlink_for_OpenVMS,2013-01-08 21:00:00,
2013-01-08 16:06:00,41.7,39.0,30.02,SW,219,0.0,0.0,90,0.00,,,0.00,WXlink_for_OpenVMS,2013-01-08 21:06:00,
2013-01-08 16:10:00,41.4,39.0,30.02,SW,220,0.0,0.0,90,0.00,,,0.00,WXlink_for_OpenVMS,2013-01-08 21:10:00,
2013-01-08 16:15:00,41.2,38.0,30.02,SW,219,0.0,0.0,90,0.00,,,0.00,WXlink_for_OpenVMS,2013-01-08 21:15:00,
2013-01-08 16:20:00,40.8,38.0,30.02,SW,220,0.0,0.0,90,0.00,,,0.00,WXlink_for_OpenVMS,2013-01-08 21:20:00,
2013-01-08 16:25:00,40.5,38.0,30.02,SW,219,0.0,0.0,90,0.00,,,0.00,WXlink_for_OpenVMS,2013-01-08 21:25:00,
2013-01-08 16:30:00,40.5,38.0,30.02,SW,219,0.0,0.0,90,0.00,,,0.00,WXlink_for_OpenVMS,2013-01-08 21:30:00,
2013-01-08 16:36:00,40.3,38.0,30.02,SW,219,0.0,0.0,90,0.00,,,0.00,WXlink_for_OpenVMS,2013-01-08 21:36:00,
2013-01-08 16:45:00,39.7,37.0,30.02,SW,219,0.0,0.0,90,0.00,,,0.00,WXlink_for_OpenVMS,2013-01-08 21:45:00,
2013-01-08 16:50:00,39.6,37.0,30.02,SW,219,0.0,0.0,90,0.00,,,0.00,WXlink_for_OpenVMS,2013-01-08 21:50:00,
2013-01-08 16:55:00,39.0,36.0,30.02,SW,219,0.0,0.0,90,0.00,,,0.00,WXlink_for_OpenVMS,2013-01-08 21:55:00,
2013-01-08 17:00:00,38.8,36.0,30.02,SW,219,0.0,0.0,90,0.00,,,0.00,WXlink_for_OpenVMS,2013-01-08 22:00:00,
2013-01-08 17:06:00,38.7,36.0,30.02,SW,219,0.0,0.0,90,0.00,,,0.00,WXlink_for_OpenVMS,2013-01-08 22:06:00,
2013-01-08 17:15:00,38.8,36.0,30.02,SW,219,0.0,0.0,90,0.00,,,0.00,WXlink_for_OpenVMS,2013-01-08 22:15:00,
2013-01-08 17:20:00,38.8,36.0,30.02,SW,219,0.0,0.0,90,0.00,,,0.00,WXlink_for_OpenVMS,2013-01-08 22:20:00,
2013-01-08 17:26:00,38.8,36.0,30.02,SW,219,0.0,0.0,90,0.00,,,0.00,WXlink_for_OpenVMS,2013-01-08 22:26:00,
2013-01-08 17:31:00,38.5,36.0,30.02,SW,219,0.0,0.0,90,0.00,,,0.00,WXlink_for_OpenVMS,2013-01-08 22:31:00,
2013-01-08 17:35:00,37.4,35.0,30.02,SW,219,0.0,0.0,90,0.00,,,0.00,WXlink_for_OpenVMS,2013-01-08 22:35:00,
2013-01-08 17:40:00,36.7,35.0,30.02,SW,219,0.0,0.0,93,0.00,,,0.00,WXlink_for_OpenVMS,2013-01-08 22:40:00,
2013-01-08 17:46:00,36.5,35.0,30.02,SW,219,0.0,0.0,93,0.00,,,0.00,WXlink_for_OpenVMS,2013-01-08 22:46:00,
2013-01-08 17:55:00,36.3,34.0,30.02,SW,219,0.0,0.0,93,0.00,,,0.00,WXlink_for_OpenVMS,2013-01-08 22:55:00,
2013-01-08 18:00:00,36.3,34.0,30.05,SW,219,0.0,0.0,93,0.00,,,0.00,WXlink_for_OpenVMS,2013-01-08 23:00:00,
2013-01-08 18:06:00,36.3,34.0,30.05,SW,219,0.0,0.0,93,0.00,,,0.00,WXlink_for_OpenVMS,2013-01-08 23:06:00,
2013-01-08 18:10:00,36.1,34.0,30.05,SW,219,0.0,0.0,93,0.00,,,0.00,WXlink_for_OpenVMS,2013-01-08 23:10:00,
2013-01-08 18:15:00,36.1,34.0,30.05,SW,219,0.0,0.0,93,0.00,,,0.00,WXlink_for_OpenVMS,2013-01-08 23:15:00,
2013-01-08 18:20:00,36.0,34.0,30.05,SW,219,0.0,0.0,93,0.00,,,0.00,WXlink_for_OpenVMS,2013-01-08 23:20:00,
2013-01-08 18:26:00,35.8,34.0,30.05,SW,219,0.0,0.0,93,0.00,,,0.00,WXlink_for_OpenVMS,2013-01-08 23:26:00,
2013-01-08 18:35:00,35.1,33.0,30.05,SW,219,0.0,0.0,93,0.00,,,0.00,WXlink_for_OpenVMS,2013-01-08 23:35:00,
2013-01-08 18:41:00,34.5,33.0,30.05,SW,219,0.0,0.0,93,0.00,,,0.00,WXlink_for_OpenVMS,2013-01-08 23:41:00,
2013-01-08 18:45:00,34.5,33.0,30.05,SW,219,0.0,0.0,93,0.00,,,0.00,WXlink_for_OpenVMS,2013-01-08 23:45:00,
2013-01-08 18:50:00,34.5,33.0,30.05,SW,219,0.0,0.0,93,0.00,,,0.00,WXlink_for_OpenVMS,2013-01-08 23:50:00,
2013-01-08 18:56:00,34.3,33.0,30.05,SW,219,0.0,0.0,93,0.00,,,0.00,WXlink_for_OpenVMS,2013-01-08 23:56:00,
2013-01-08 19:05:00,34.3,33.0,30.05,SW,219,0.0,0.0,93,0.00,,,0.00,WXlink_for_OpenVMS,2013-01-09 00:05:00,
2013-01-08 19:10:00,34.0,32.0,30.05,SW,219,0.0,0.0,93,0.00,,,0.00,WXlink_for_OpenVMS,2013-01-09 00:10:00,
2013-01-08 19:15:00,33.8,32.0,30.05,SW,219,0.0,0.0,93,0.00,,,0.00,WXlink_for_OpenVMS,2013-01-09 00:15:00,
2013-01-08 19:20:00,33.8,32.0,30.05,SW,219,0.0,0.0,93,0.00,,,0.00,WXlink_for_OpenVMS,2013-01-09 00:20:00,
2013-01-08 19:25:00,33.8,32.0,30.05,SW,219,0.0,0.0,93,0.00,,,0.00,WXlink_for_OpenVMS,2013-01-09 00:25:00,
2013-01-08 19:30:00,33.4,32.0,30.08,SW,219,0.0,0.0,94,0.00,,,0.00,WXlink_for_OpenVMS,2013-01-09 00:30:00,
2013-01-08 19:35:00,33.3,32.0,30.08,SW,219,0.0,0.0,94,0.00,,,0.00,WXlink_for_OpenVMS,2013-01-09 00:35:00,
2013-01-08 19:41:00,33.1,32.0,30.08,SW,219,0.0,0.0,94,0.00,,,0.00,WXlink_for_OpenVMS,2013-01-09 00:41:00,
2013-01-08 19:50:00,32.7,31.0,30.08,SW,219,0.0,0.0,94,0.00,,,0.00,WXlink_for_OpenVMS,2013-01-09 00:50:00,
2013-01-08 19:55:00,32.7,31.0,30.08,SW,219,0.0,0.0,94,0.00,,,0.00,WXlink_for_OpenVMS,2013-01-09 00:55:00,
2013-01-08 20:00:00,32.5,31.0,30.08,SW,219,0.0,0.0,94,0.00,,,0.00,WXlink_for_OpenVMS,2013-01-09 01:00:00,
2013-01-08 20:06:00,32.2,31.0,30.08,SW,219,0.0,0.0,94,0.00,,,0.00,WXlink_for_OpenVMS,2013-01-09 01:06:00,
2013-01-08 20:10:00,32.4,31.0,30.08,SW,219,0.0,0.0,94,0.00,,,0.00,WXlink_for_OpenVMS,2013-01-09 01:10:00,
2013-01-08 20:15:00,32.5,31.0,30.08,SW,219,0.0,0.0,94,0.00,,,0.00,WXlink_for_OpenVMS,2013-01-09 01:15:00,
2013-01-08 20:21:00,32.2,31.0,30.08,SW,219,0.0,0.0,94,0.00,,,0.00,WXlink_for_OpenVMS,2013-01-09 01:21:00,
2013-01-08 20:31:00,31.8,30.0,30.08,SW,219,0.0,0.0,94,0.00,,,0.00,WXlink_for_OpenVMS,2013-01-09 01:31:00,
2013-01-08 20:40:00,31.8,30.0,30.08,SW,219,0.0,0.0,94,0.00,,,0.00,WXlink_for_OpenVMS,2013-01-09 01:40:00,
2013-01-08 20:45:00,31.8,30.0,30.08,SW,219,0.0,0.0,94,0.00,,,0.00,WXlink_for_OpenVMS,2013-01-09 01:45:00,
2013-01-08 20:51:00,31.8,30.0,30.08,SW,219,0.0,0.0,94,0.00,,,0.00,WXlink_for_OpenVMS,2013-01-09 01:51:00,
2013-01-08 21:00:00,31.8,30.0,30.08,SW,219,0.0,0.0,94,0.00,,,0.00,WXlink_for_OpenVMS,2013-01-09 02:00:00,
2013-01-08 21:06:00,31.5,30.0,30.08,SW,219,0.0,0.0,94,0.00,,,0.00,WXlink_for_OpenVMS,2013-01-09 02:06:00,
2013-01-08 21:10:00,31.1,30.0,30.08,SW,219,0.0,0.0,94,0.00,,,0.00,WXlink_for_OpenVMS,2013-01-09 02:10:00,
2013-01-08 21:15:00,31.1,30.0,30.08,SW,219,0.0,0.0,94,0.00,,,0.00,WXlink_for_OpenVMS,2013-01-09 02:15:00,
2013-01-08 21:20:00,31.1,30.0,30.08,SW,219,0.0,0.0,94,0.00,,,0.00,WXlink_for_OpenVMS,2013-01-09 02:20:00,
2013-01-08 21:25:00,31.1,30.0,30.08,SW,219,0.0,0.0,94,0.00,,,0.00,WXlink_for_OpenVMS,2013-01-09 02:25:00,
2013-01-08 21:30:00,31.3,30.0,30.08,SW,219,0.0,0.0,94,0.00,,,0.00,WXlink_for_OpenVMS,2013-01-09 02:30:00,
2013-01-08 21:36:00,31.3,30.0,30.08,SW,219,0.0,0.0,94,0.00,,,0.00,WXlink_for_OpenVMS,2013-01-09 02:36:00,
2013-01-08 21:45:00,31.5,30.0,30.08,SW,219,0.0,0.0,94,0.00,,,0.00,WXlink_for_OpenVMS,2013-01-09 02:45:00,
2013-01-08 21:50:00,31.5,30.0,30.08,SW,219,0.0,0.0,94,0.00,,,0.00,WXlink_for_OpenVMS,2013-01-09 02:50:00,
2013-01-08 21:55:00,31.3,30.0,30.08,SW,219,0.0,0.0,94,0.00,,,0.00,WXlink_for_OpenVMS,2013-01-09 02:55:00,
2013-01-08 22:00:00,31.1,30.0,30.08,SW,219,0.0,0.0,94,0.00,,,0.00,WXlink_for_OpenVMS,2013-01-09 03:00:00,
2013-01-08 22:06:00,30.7,29.0,30.08,SW,219,0.0,0.0,94,0.00,,,0.00,WXlink_for_OpenVMS,2013-01-09 03:06:00,
2013-01-08 22:10:00,30.7,29.0,30.08,SW,219,0.0,0.0,94,0.00,,,0.00,WXlink_for_OpenVMS,2013-01-09 03:10:00,
2013-01-08 22:16:00,30.7,29.0,30.08,SW,219,0.0,0.0,94,0.00,,,0.00,WXlink_for_OpenVMS,2013-01-09 03:16:00,
2013-01-08 22:25:00,31.3,30.0,30.08,SW,219,0.0,0.0,94,0.00,,,0.00,WXlink_for_OpenVMS,2013-01-09 03:25:00,
2013-01-08 22:30:00,31.1,30.0,30.08,SW,219,0.0,0.0,94,0.00,,,0.00,WXlink_for_OpenVMS,2013-01-09 03:30:00,
2013-01-08 22:35:00,31.5,30.0,30.08,SW,219,0.0,0.0,94,0.00,,,0.00,WXlink_for_OpenVMS,2013-01-09 03:35:00,
2013-01-08 22:40:00,31.5,30.0,30.08,SW,219,0.0,0.0,94,0.00,,,0.00,WXlink_for_OpenVMS,2013-01-09 03:40:00,
2013-01-08 22:46:00,31.1,30.0,30.08,SW,219,0.0,0.0,94,0.00,,,0.00,WXlink_for_OpenVMS,2013-01-09 03:46:00,
2013-01-08 22:55:00,30.7,29.0,30.08,SW,219,0.0,0.0,94,0.00,,,0.00,WXlink_for_OpenVMS,2013-01-09 03:55:00,
2013-01-08 23:00:00,30.6,29.0,30.08,SW,219,0.0,0.0,94,0.00,,,0.00,WXlink_for_OpenVMS,2013-01-09 04:00:00,
2013-01-08 23:05:00,30.4,29.0,30.08,SW,219,0.0,0.0,94,0.00,,,0.00,WXlink_for_OpenVMS,2013-01-09 04:05:00,
2013-01-08 23:10:00,30.4,29.0,30.08,SW,219,0.0,0.0,94,0.00,,,0.00,WXlink_for_OpenVMS,2013-01-09 04:10:00,
2013-01-08 23:15:00,30.6,29.0,30.08,SW,219,0.0,0.0,94,0.00,,,0.00,WXlink_for_OpenVMS,2013-01-09 04:15:00,
2013-01-08 23:20:00,30.4,29.0,30.08,SW,219,0.0,0.0,94,0.00,,,0.00,WXlink_for_OpenVMS,2013-01-09 04:20:00,
2013-01-08 23:25:00,30.6,29.0,30.08,SW,219,0.0,0.0,94,0.00,,,0.00,WXlink_for_OpenVMS,2013-01-09 04:25:00,
2013-01-08 23:31:00,30.6,29.0,30.08,SW,219,0.0,0.0,94,0.00,,,0.00,WXlink_for_OpenVMS,2013-01-09 04:31:00,
2013-01-08 23:40:00,30.6,29.0,30.08,SW,219,0.0,0.0,94,0.00,,,0.00,WXlink_for_OpenVMS,2013-01-09 04:40:00,
2013-01-08 23:45:00,30.7,29.0,30.08,SW,219,0.0,0.0,94,0.00,,,0.00,WXlink_for_OpenVMS,2013-01-09 04:45:00,
2013-01-08 23:50:00,30.6,29.0,30.08,SW,219,0.0,0.0,94,0.00,,,0.00,WXlink_for_OpenVMS,2013-01-09 04:50:00,
2013-01-08 23:55:00,30.6,29.0,30.08,SW,219,0.0,0.0,94,0.00,,,0.00,WXlink_for_OpenVMS,2013-01-09 04:55:00,